GEFSGL_500_meanwind_174.txt.gz
Wind_Speed
8 8 8 7 7 7 7 7 7 8 9 9 10 10 11 12 13 13 14 15 16 17 17 18 19 19 19 19 19 21 22 22 23 24 25 26 26 26 27 28 29 29 29
9 8 8 8 7 7 7 7 8 8 9 10 11 12 12 12 13 14 15 16 16 17 18 18 19 19 20 20 21 22 23 24 25 26 26 27 27 28 29 29 30 30 31
9 8 8 9 8 7 7 7 8 9 9 10 11 11 12 13 14 15 15 16 17 17 18 19 20 20 21 22 23 23 24 25 26 27 28 28 29 29 30 31 31 31 32
10 9 9 9 9 8 7 8 8 9 10 11 11 11 12 13 14 16 16 17 18 18 19 19 20 21 22 22 24 25 26 27 27 28 29 29 30 30 31 32 32 33 33
10 10 10 10 10 9 8 8 9 10 11 11 11 12 13 14 15 16 17 18 18 19 20 20 21 22 23 24 25 26 27 27 27 28 29 30 31 31 32 32 33 34 34
11 11 11 10 10 10 10 10 11 11 12 12 12 14 15 17 17 18 18 19 20 21 21 22 23 24 25 26 26 27 27 27 29 29 30 31 31 32 33 33 34 35 35
13 12 12 12 11 11 12 12 12 13 13 13 14 16 17 18 19 20 21 22 22 22 23 24 25 25 26 26 26 27 28 29 29 30 30 31 32 32 33 34 34 35 36
14 14 14 14 14 14 14 14 14 14 14 15 16 17 18 19 20 21 22 22 23 23 24 25 25 25 26 26 27 28 29 29 30 30 31 32 33 34 34 35 35 36 36
16 16 16 17 16 16 16 16 16 16 16 17 17 18 19 21 22 22 22 22 23 24 24 25 26 27 27 27 28 29 30 31 31 32 32 33 34 34 34 35 35 36 37
17 17 18 17 17 17 18 18 18 19 19 19 20 20 21 22 23 23 23 23 24 24 25 26 27 28 28 29 30 31 31 31 32 33 33 34 35 35 35 35 36 36 37
19 18 19 19 19 19 19 20 20 21 21 22 23 23 23 23 24 24 24 25 26 26 27 28 28 28 29 29 30 31 32 33 33 34 35 35 35 35 35 36 36 36 36
21 20 20 20 21 20 21 22 23 23 24 24 24 24 24 25 25 25 26 26 27 28 29 29 29 29 30 30 31 32 32 33 34 35 35 35 35 35 35 35 35 35 35
22 21 21 22 23 23 23 24 23 24 24 24 24 25 25 26 26 27 27 28 29 29 30 30 30 30 31 31 32 33 33 34 34 34 35 35 34 35 35 35 35 35 34
22 22 22 23 24 24 24 25 25 26 26 25 26 27 27 27 28 28 29 30 30 31 31 31 31 31 32 33 33 33 33 33 34 34 34 34 34 34 34 34 34 34 33
23 23 24 24 25 26 26 27 27 27 27 27 28 28 28 27 28 28 29 30 31 31 32 32 32 33 33 33 34 34 34 33 33 33 33 34 34 34 33 33 33 33 33
24 25 26 26 26 27 28 28 27 28 28 29 29 28 28 28 28 29 30 31 32 32 33 33 33 34 33 33 34 34 33 33 34 33 33 33 33 33 33 32 32 32 32
27 27 27 28 28 28 29 29 29 28 28 28 28 29 29 30 30 31 31 32 33 34 34 34 33 33 33 34 34 34 33 33 34 33 33 33 33 33 32 32 32 32 31
29 29 29 29 29 29 29 29 29 28 28 28 29 30 30 31 31 31 32 33 34 34 34 34 34 34 34 34 34 33 33 33 33 33 33 33 33 33 33 32 31 31 31
30 30 30 30 30 29 29 29 29 29 29 29 30 30 31 32 32 32 33 33 34 34 34 34 34 34 34 34 33 33 32 33 33 33 32 32 32 32 31 30 30 29 29
31 31 30 30 29 29 29 29 29 29 30 30 30 31 31 32 32 32 32 33 34 34 34 34 34 34 34 33 33 32 32 32 32 31 31 31 31 30 29 29 29 29 29
31 30 30 30 30 30 29 29 29 30 30 30 30 31 32 32 32 32 33 33 33 32 32 32 33 33 32 32 32 31 31 31 31 31 30 29 29 29 29 29 29 29 29
30 30 29 30 29 29 29 30 31 30 30 30 30 30 31 31 31 31 31 31 31 31 31 31 32 32 31 31 30 30 31 32 32 31 30 29 29 29 29 29 29 29 29
29 29 28 29 29 29 30 31 30 30 30 30 30 30 30 30 29 30 30 30 30 30 31 31 32 31 31 31 31 31 30 30 30 30 29 29 29 29 29 29 29 29 29
28 28 28 28 29 29 29 30 29 28 28 29 29 29 29 29 29 30 30 30 30 31 31 31 31 30 29 29 29 29 30 29 29 29 29 29 30 29 30 30 29 29 29
27 27 27 27 28 28 28 28 27 27 28 28 28 28 29 28 29 30 31 30 30 29 29 29 29 28 28 29 29 29 29 29 28 29 29 30 30 30 30 30 30 30 31
26 27 26 27 27 27 27 27 27 27 27 27 27 28 28 29 29 30 30 30 29 29 29 29 29 28 28 28 28 29 29 29 29 30 30 31 31 31 31 31 31 32 32

GEFSGL_500_meanwind_180.txt.gz
Wind_Speed
8 8 7 7 8 8 8 8 9 10 10 11 11 11 12 12 13 13 14 15 16 16 17 18 18 19 19 20 21 21 22 21 22 23 24 25 26 27 27 28 28 29 29
9 9 8 9 9 10 10 10 10 11 11 12 12 12 12 13 14 14 15 15 16 17 18 19 19 20 21 21 21 21 21 22 23 24 25 26 27 27 28 29 30 30 30
10 10 9 10 10 11 11 11 11 11 11 12 12 13 13 13 14 15 16 16 17 17 18 18 19 19 20 21 22 22 22 23 25 26 26 27 28 28 28 29 30 31 31
11 11 11 11 10 11 11 11 11 11 11 11 12 13 13 14 15 16 17 17 18 19 19 20 20 21 21 21 22 23 24 25 26 27 27 28 29 29 30 30 31 32 33
13 12 12 13 12 12 12 12 12 12 12 12 13 14 15 15 16 17 18 19 19 20 20 21 22 23 23 24 24 24 25 27 28 28 28 29 30 30 30 31 32 33 33
14 14 13 14 14 13 13 13 13 13 13 13 14 15 16 17 18 18 19 20 21 22 22 23 24 25 25 26 26 26 27 28 28 28 29 30 30 30 31 31 32 33 33
16 16 16 15 15 15 15 15 14 14 14 15 15 17 17 18 19 21 22 22 23 24 24 24 24 25 26 27 27 27 28 29 29 29 29 30 31 31 31 32 33 34 34
18 18 17 17 17 17 17 17 16 16 16 17 18 19 19 20 21 22 23 23 23 24 24 25 25 26 26 26 27 28 29 29 30 30 31 31 32 32 33 33 34 35 35
20 19 19 19 19 19 18 19 19 19 19 19 20 21 21 21 21 22 23 23 24 25 25 25 26 26 26 26 27 28 30 30 30 31 32 33 33 33 33 34 34 35 34
21 21 20 20 20 20 21 20 21 21 21 21 22 22 22 22 22 23 24 25 25 25 26 26 27 28 28 28 29 30 31 31 31 32 32 32 33 33 33 34 34 34 35
22 21 21 22 22 22 22 21 21 22 22 23 23 24 24 24 24 24 25 26 26 26 26 27 28 29 29 30 31 31 31 31 32 33 33 33 33 33 33 33 34 35 35
23 23 22 22 23 23 23 23 22 22 22 23 24 25 25 25 25 26 26 27 27 27 27 27 28 29 29 30 31 31 31 32 32 33 33 33 33 33 33 33 34 35 35
25 24 24 24 24 24 24 24 23 23 23 24 25 25 25 26 26 27 27 28 28 28 28 28 30 31 32 32 32 32 32 32 33 33 32 32 32 32 32 32 33 34 35
26 26 26 26 25 25 25 25 25 24 24 25 26 26 27 27 27 28 28 28 28 29 29 30 32 32 33 33 32 32 33 33 33 32 32 32 32 32 32 33 34 34 34
27 27 26 26 25 25 25 26 26 25 25 26 26 27 28 29 30 30 30 30 30 31 31 32 33 33 34 34 34 34 34 34 33 33 32 32 32 33 33 34 34 34 34
29 29 28 26 26 27 27 27 27 27 27 28 28 29 30 31 32 32 32 32 33 33 33 33 33 34 34 34 34 34 34 33 33 33 33 32 32 33 33 34 34 34 34
30 30 28 28 28 28 29 28 28 28 28 29 30 31 31 32 32 33 33 33 33 33 33 33 34 34 34 34 34 34 34 34 34 33 33 33 33 33 33 33 33 32 32
31 30 30 29 29 29 29 29 30 30 30 30 31 31 32 32 33 34 34 33 33 33 34 34 34 34 35 35 35 35 35 34 34 33 33 33 33 32 32 32 31 31 31
32 31 31 30 30 30 30 30 30 30 31 31 31 31 32 32 33 33 32 32 33 33 33 33 34 34 34 34 34 34 34 34 33 33 32 32 32 31 31 31 31 31 31
31 31 31 31 30 30 31 31 31 31 31 31 32 32 32 32 31 31 31 31 32 32 33 33 34 34 34 34 34 34 33 32 32 32 32 31 31 31 31 31 31 31 31
31 31 31 31 31 31 31 31 30 30 30 30 31 31 31 31 30 30 31 31 32 32 32 33 33 33 33 33 33 33 32 32 31 32 32 31 31 31 30 31 30 31 30
31 31 31 31 31 31 30 30 30 30 30 30 30 29 29 29 30 31 31 31 31 31 31 32 32 32 32 32 32 32 32 31 31 31 31 31 31 30 30 30 30 30 30
31 31 30 30 30 29 29 29 29 29 29 29 30 30 30 30 30 30 30 30 30 30 30 31 31 31 31 31 30 30 30 30 30 30 30 30 31 30 30 30 30 29 29
30 30 29 29 29 28 28 28 29 29 30 30 30 30 30 30 29 30 30 30 30 30 30 31 31 31 31 30 30 30 30 30 30 30 30 30 31 30 30 29 29 29 29
29 29 28 28 28 28 28 29 29 30 30 29 29 29 29 29 29 30 30 31 30 31 31 31 31 31 31 30 30 29 29 29 30 31 30 30 29 29 28 28 28 29 30
28 28 27 27 27 28 28 29 29 29 29 29 29 28 28 29 29 30 30 31 31 31 31 31 31 31 30 29 29 29 29 29 29 30 30 30 29 29 29 29 30 30 31

GEFSGL_500_meanwind_186.txt.gz
Wind_Speed
15 14 12 10 9 9 9 10 10 11 11 11 11 12 13 13 14 15 15 15 15 16 16 16 17 18 18 19 19 20 21 22 23 23 25 24 24 24 24 25 25 26 26
16 15 14 12 11 11 11 11 12 12 12 13 13 13 14 14 15 15 16 17 17 17 17 17 18 18 19 20 20 21 22 22 23 23 24 24 25 25 26 27 27 28 28
17 17 15 14 13 12 12 13 13 13 13 14 14 15 15 15 16 16 17 17 18 18 18 19 19 19 20 21 22 22 23 24 24 25 25 26 26 27 29 29 29 30 30
18 18 17 16 15 14 13 13 14 15 15 15 15 16 16 16 16 17 17 18 18 19 19 20 21 21 22 22 23 23 24 25 25 26 27 27 28 29 31 31 31 31 31
19 18 18 17 16 16 15 15 15 16 16 16 16 17 17 17 17 17 18 19 19 20 21 21 22 23 23 24 24 25 26 26 27 28 28 29 30 31 31 31 31 31 31
20 20 19 19 18 17 17 17 17 18 18 18 19 18 18 18 18 19 19 20 21 22 23 23 24 25 25 25 26 27 27 28 28 29 29 30 30 31 30 31 31 31 31
22 21 20 20 20 19 18 18 19 19 20 20 20 19 19 20 20 20 20 21 22 23 23 24 24 25 26 26 27 28 28 29 29 30 31 31 31 31 31 31 31 31 32
22 22 22 21 21 21 21 20 20 20 21 21 21 21 21 21 21 21 22 22 23 24 24 24 24 26 26 27 27 28 28 30 30 30 30 30 31 31 30 31 31 32 33
24 24 23 23 23 22 23 22 21 21 22 22 22 22 22 23 23 23 23 24 24 24 25 25 26 26 27 28 28 29 30 30 31 31 31 31 31 31 32 32 32 32 33
25 25 25 25 24 24 24 23 23 22 23 23 23 23 23 24 24 25 26 25 25 26 26 27 27 27 28 29 30 30 31 31 31 32 31 30 31 31 31 32 32 33 33
27 27 27 26 26 25 25 24 24 25 25 25 25 24 25 25 25 26 27 27 27 27 28 28 29 29 29 30 31 32 32 32 32 32 32 32 31 31 32 32 33 33 33
29 28 28 27 27 27 26 26 26 26 25 26 26 26 26 25 26 26 27 28 28 28 29 30 30 31 31 32 32 33 33 34 34 34 33 33 32 32 32 33 33 33 32
29 29 28 28 28 27 27 27 27 27 26 26 26 26 27 27 27 27 28 30 30 30 31 31 31 32 32 33 33 34 34 34 34 34 33 33 33 33 33 32 33 33 33
29 29 29 28 28 28 28 28 28 27 27 27 28 28 28 28 28 29 29 30 30 31 31 32 32 32 32 32 33 34 34 34 34 34 34 34 34 34 34 33 33 33 33
29 29 29 29 29 30 29 29 29 28 28 29 29 29 30 30 30 30 30 31 32 32 32 33 33 33 33 34 34 34 35 35 35 34 34 34 34 34 34 34 34 34 35
30 30 30 30 30 30 29 30 30 30 30 30 30 31 31 31 31 31 31 32 32 33 33 33 33 33 34 35 35 35 36 35 34 34 34 34 34 35 35 34 34 34 34
30 31 31 31 31 30 30 30 31 31 31 31 32 32 33 32 32 32 32 32 33 34 34 34 34 35 35 35 35 35 35 35 34 34 34 33 33 33 33 33 33 33 33
31 31 31 31 31 31 31 31 32 32 32 32 33 33 33 33 33 33 33 34 34 35 35 35 35 35 36 36 36 35 35 34 33 33 33 33 33 33 33 33 33 33 33
30 30 31 31 31 32 32 32 32 32 32 32 32 32 33 33 33 33 33 34 35 35 35 35 35 35 35 35 35 34 33 33 32 32 32 33 33 33 33 33 33 33 32
30 30 31 31 32 32 32 32 32 32 32 32 33 33 33 33 33 33 34 35 35 35 35 35 35 35 35 35 34 33 33 33 33 33 33 33 33 33 33 33 33 32 32
30 31 32 32 32 32 32 32 32 33 33 32 33 33 33 33 33 33 34 34 35 35 35 35 34 34 34 34 33 33 34 34 33 33 33 33 33 32 32 32 32 32 32
32 32 32 32 32 32 32 32 32 32 32 32 32 33 33 33 33 33 33 34 34 33 33 33 33 34 34 34 33 33 33 33 33 33 32 32 32 32 32 32 32 32 32
32 32 32 32 32 33 33 33 32 32 32 32 32 33 34 33 33 33 33 33 33 33 32 32 33 33 33 33 33 33 33 33 32 32 32 32 32 32 32 32 32 31 31
32 32 32 32 32 33 32 32 32 32 32 32 32 33 32 32 32 33 33 32 32 32 32 32 32 32 31 31 32 32 32 32 32 31 31 31 31 31 31 31 31 32 31
30 30 31 31 31 31 31 31 31 31 32 32 32 32 31 31 32 32 32 31 32 32 32 33 32 32 31 31 32 32 32 31 31 30 30 30 31 31 31 32 32 32 32
29 29 29 29 30 30 30 30 30 31 31 31 31 31 30 30 30 30 30 30 31 32 32 32 32 32 32 32 32 32 32 31 30 30 31 31 31 32 32 32 32 32 33

GEFSGL_500_meanwind_192.txt.gz
Wind_Speed
14 14 14 13 12 10 9 9 9 9 9 9 10 10 10 10 11 12 12 14 14 15 15 16 16 16 16 17 17 17 18 18 18 19 20 22 23 23 24 24 25 25 26
15 15 14 13 12 12 11 10 11 12 11 11 11 11 11 11 12 12 13 14 15 15 16 17 17 18 18 18 18 18 19 20 20 21 22 23 24 24 25 26 26 27 27
16 15 15 14 14 13 12 12 12 12 12 12 12 12 12 12 13 13 14 15 16 16 17 17 18 18 18 18 19 20 20 21 22 22 23 24 25 26 26 27 27 28 29
17 17 16 15 15 14 14 13 13 13 13 13 13 13 13 13 14 15 15 16 17 17 18 18 19 20 20 20 21 21 22 23 24 24 25 26 27 27 27 28 28 29 29
18 18 17 17 17 16 15 15 14 14 14 14 14 14 14 15 15 15 16 16 17 18 18 19 19 20 21 21 22 23 24 24 25 26 27 27 27 28 28 29 29 30 30
19 19 19 19 18 18 17 16 16 16 16 16 15 16 15 15 16 16 16 16 17 18 19 19 20 21 22 22 23 24 25 25 26 26 27 28 29 29 29 29 30 31 31
20 20 20 20 20 19 19 18 18 18 17 17 17 17 17 17 17 17 17 18 18 18 20 21 22 22 23 23 24 24 25 26 26 26 27 27 28 29 30 30 31 31 31
20 21 20 21 21 21 20 20 20 19 19 18 18 19 19 18 18 18 18 19 19 19 20 21 22 23 24 24 25 26 26 26 26 27 27 28 29 29 30 30 31 31 31
22 22 22 22 22 22 22 21 20 20 20 20 20 20 20 19 19 20 20 20 20 21 21 22 23 24 24 25 26 27 27 27 28 28 29 30 31 31 31 31 32 32 32
24 24 24 24 24 24 23 22 22 22 22 22 21 21 20 21 21 21 21 21 22 22 23 24 24 24 25 26 27 28 28 28 29 30 31 31 31 32 32 32 31 32 32
26 26 26 25 26 25 24 24 23 23 23 23 23 22 22 22 22 22 23 23 23 23 24 24 26 26 27 28 29 29 29 30 31 31 31 31 32 32 32 32 32 32 32
27 27 26 26 26 25 25 25 24 24 24 24 23 23 24 23 23 23 24 25 25 25 25 26 27 27 28 29 30 30 30 31 31 32 32 32 32 32 32 33 33 33 33
27 26 26 26 26 25 25 25 25 24 24 24 24 25 25 25 25 25 25 25 26 26 26 27 27 28 28 29 30 30 31 31 31 32 32 33 33 33 33 33 33 34 34
27 27 26 27 26 26 26 26 26 26 26 26 26 26 26 25 25 26 26 27 27 27 28 28 29 29 29 30 30 31 32 32 32 33 33 34 34 33 33 34 34 34 34
28 28 28 27 27 27 26 26 27 27 27 27 27 27 26 26 26 27 27 27 28 28 29 29 29 30 30 31 31 31 32 33 33 33 33 33 33 33 34 34 34 34 33
28 28 28 27 27 27 27 27 28 28 28 27 27 26 27 27 27 28 28 28 28 29 29 29 30 31 31 31 32 32 33 33 33 33 33 33 33 33 33 33 33 33 33
29 28 28 28 28 28 28 28 29 29 29 28 27 27 27 27 28 29 29 29 29 29 30 31 31 32 32 32 32 32 33 33 34 34 34 34 34 33 33 33 33 33 32
30 29 29 29 29 29 29 29 29 29 28 28 28 27 28 28 29 30 30 29 30 30 30 31 31 32 32 32 32 32 33 33 33 33 33 33 33 32 32 32 32 32 31
30 30 30 29 30 30 30 30 29 29 28 28 28 28 28 29 30 30 30 29 30 30 30 30 31 31 31 31 31 32 33 33 33 32 31 31 31 31 31 31 32 31 31
31 31 30 30 31 30 30 30 29 29 29 29 29 29 29 29 30 30 30 30 30 30 31 31 31 31 31 32 32 32 32 31 30 30 30 30 30 30 31 31 31 32 32
30 30 30 30 30 29 29 29 29 29 29 29 29 29 29 30 30 30 30 30 30 30 31 31 30 30 31 31 31 31 31 30 29 29 30 30 30 30 31 31 31 31 31
30 29 29 29 28 28 28 28 29 29 29 29 29 29 29 29 29 30 30 31 31 31 31 31 31 31 30 30 30 30 30 29 29 29 30 30 30 30 30 31 31 31 31
29 29 29 28 28 28 28 28 28 28 29 29 29 29 29 30 30 30 31 31 31 30 31 31 30 30 30 30 30 30 30 30 30 30 30 30 30 31 31 31 31 31 32
29 28 28 28 27 27 27 28 28 29 29 29 29 29 30 30 30 31 31 30 30 30 30 30 29 29 30 31 31 30 31 31 30 31 31 31 31 31 31 31 31 31 31
28 27 27 27 26 26 27 28 28 29 29 29 29 29 30 30 30 30 30 29 29 29 29 29 30 30 31 31 31 31 31 31 31 31 31 31 31 31 31 31 32 32 32
26 27 27 26 26 26 27 28 28 28 28 28 29 28 29 29 29 29 29 29 29 29 29 29 30 30 31 31 31 31 31 32 32 32 32 31 31 32 32 32 33 33 34

GEFSGL_500_meanwind_198.txt.gz
Wind_Speed
14 14 14 14 13 11 11 11 11 11 11 11 12 12 13 13 14 15 15 15 16 16 17 18 19 20 20 21 21 21 21 21 21 22 23 24 24 25 26 26 26 27 27
15 15 15 15 14 14 12 12 12 12 12 12 13 13 13 14 14 15 16 17 17 18 18 19 20 21 21 21 22 22 22 22 23 23 24 25 25 26 27 27 27 28 29
15 16 15 15 15 15 15 14 13 13 14 14 14 14 14 15 15 16 17 17 17 18 19 20 20 21 22 22 22 23 23 24 24 25 25 26 27 28 28 28 29 30 30
16 16 16 17 17 17 17 16 15 15 15 15 15 15 15 16 16 17 18 18 19 19 20 20 20 20 21 22 23 24 25 25 26 26 27 28 28 29 29 29 30 30 31
17 17 18 18 19 19 19 18 18 17 17 17 17 17 17 17 17 19 19 19 19 20 20 21 21 21 21 22 23 25 26 27 27 28 28 29 29 29 30 30 30 31 32
18 19 20 20 21 20 21 20 19 19 18 18 18 18 18 18 19 20 20 20 20 20 21 22 22 22 22 22 23 25 26 27 28 28 29 30 30 30 30 30 31 32 32
20 21 21 22 22 22 23 21 20 20 19 19 19 19 19 19 20 20 20 20 20 20 20 21 22 22 23 23 24 25 26 28 28 29 30 31 31 31 31 32 32 33 33
21 21 22 23 23 23 23 22 21 21 21 20 21 21 21 21 21 21 21 22 21 21 22 23 23 24 24 25 26 27 27 28 29 31 31 31 31 31 31 33 33 33 34
21 22 23 24 24 24 24 23 22 22 21 21 22 22 22 23 23 23 23 23 23 23 23 23 24 25 26 26 27 28 29 29 30 31 32 31 31 32 33 33 34 34 34
23 24 24 25 25 25 25 25 24 23 22 22 23 23 23 23 24 24 24 24 25 25 24 25 25 26 26 27 28 28 29 29 30 31 32 32 33 34 34 34 34 35 35
25 25 25 26 26 26 26 25 24 24 23 23 23 23 24 24 25 25 25 26 26 26 26 26 27 27 28 28 28 29 29 30 31 31 32 33 33 34 35 35 35 36 36
26 26 26 26 26 26 26 25 25 25 24 24 24 24 24 25 25 26 26 26 26 26 27 27 27 27 28 28 29 29 30 30 31 32 32 33 34 35 35 35 35 36 36
27 27 26 26 26 26 26 25 25 24 24 24 25 25 25 25 26 26 27 27 27 26 26 27 27 27 28 29 29 30 30 31 32 33 33 34 34 34 35 35 35 35 35
26 26 26 26 27 26 25 25 25 25 25 25 26 26 26 26 26 26 27 27 26 26 26 26 27 28 29 30 30 30 31 32 32 33 33 33 33 34 34 35 35 35 35
27 26 27 28 28 27 26 25 25 26 26 26 26 26 27 26 26 27 27 28 27 27 27 27 28 29 30 30 31 32 32 33 33 33 33 33 33 34 35 35 35 35 35
28 28 28 29 28 28 27 27 26 27 27 28 28 27 27 28 28 28 28 28 28 28 28 29 30 30 30 31 31 32 33 33 33 33 34 34 34 34 34 34 34 34 34
29 29 28 29 29 29 28 28 27 27 28 29 29 29 29 29 29 28 28 28 28 29 29 30 31 31 31 32 33 33 33 34 34 34 34 34 34 34 35 35 35 34 34
30 29 29 29 29 29 28 28 28 29 29 29 30 30 29 29 29 29 28 29 29 30 30 31 31 32 32 32 33 33 34 34 34 35 35 35 34 34 35 35 35 34 34
30 30 29 29 29 29 28 29 29 30 30 30 30 29 29 28 28 28 28 28 29 29 30 30 31 32 32 33 33 33 33 34 34 35 34 34 34 34 34 34 34 33 34
29 29 29 29 29 29 29 29 29 30 30 29 29 29 29 28 27 28 28 29 29 29 30 31 31 32 33 33 34 34 34 34 34 34 33 33 33 33 33 33 33 34 34
29 29 29 29 30 30 29 29 29 29 29 29 29 29 28 28 28 29 29 30 30 30 31 31 32 32 33 33 33 33 33 33 33 33 33 33 33 33 33 33 34 34 33
29 29 29 29 30 30 30 30 30 30 30 30 29 29 29 29 30 30 30 30 30 31 31 32 32 32 33 32 33 32 32 32 32 33 33 33 33 33 33 33 33 33 33
28 28 29 30 30 30 30 30 30 30 30 30 29 29 29 29 29 30 30 30 31 31 32 32 32 32 32 32 32 32 32 32 32 32 33 33 33 33 33 33 33 33 33
28 28 29 30 30 30 30 29 29 29 29 29 29 29 29 29 30 30 30 30 31 31 31 32 31 31 31 31 31 32 32 32 33 33 33 33 33 33 33 33 33 33 33
27 28 29 29 30 30 29 29 29 29 29 29 29 29 30 30 30 30 30 30 31 31 31 31 31 31 31 32 32 32 32 33 33 33 33 33 33 33 33 33 33 33 32
28 29 29 29 29 29 29 29 29 29 29 29 30 30 30 31 31 30 30 30 30 31 31 31 31 31 32 32 32 32 33 33 33 33 33 32 32 33 33 32 32 32 32